GBMYG LFNS-LFMD

Flight info

Callsign GBMYG
Flight time 0h 44m
Altitude 7000
Route DCT
Aircraft C172/L-SFG/C

Departure

Time 2026-04-30 19:00
Airport Sistéron-Vaumeilh Airfield (LFNS)

Arrival

Time 2026-04-30 19:45
Airport Cannes Mandelieu Airport (LFMD)
Time Latitude Longitude Altitude Speed Heading
2026-04-30 18:50 44.28295 5.93206 1785 ft 0 kts 178°
2026-04-30 18:53 44.28288 5.93206 1784 ft 5 kts 181°
2026-04-30 18:53 44.28261 5.93175 1787 ft 4 kts 254°
2026-04-30 18:54 44.28256 5.93135 1788 ft 4 kts 261°
2026-04-30 18:54 44.28248 5.93081 1787 ft 5 kts 255°
2026-04-30 18:54 44.28239 5.93025 1788 ft 5 kts 257°
2026-04-30 18:54 44.28233 5.92991 1786 ft 0 kts 222°
2026-04-30 18:56 44.28236 5.92974 1787 ft 5 kts 338°
2026-04-30 18:57 44.28487 5.92959 1790 ft 32 kts 356°
2026-04-30 18:57 44.28684 5.92933 1791 ft 24 kts 354°
2026-04-30 18:57 44.28842 5.92913 1796 ft 22 kts 354°
2026-04-30 18:58 44.28940 5.92864 1800 ft 6 kts 185°
2026-04-30 18:58 44.28924 5.92866 1799 ft 0 kts 176°
2026-04-30 18:58 44.28924 5.92865 1799 ft 0 kts 176°
2026-04-30 19:00 44.28212 5.92965 1876 ft 76 kts 174°
2026-04-30 19:00 44.27674 5.93009 2081 ft 78 kts 180°
2026-04-30 19:00 44.26510 5.93078 2471 ft 83 kts 176°
2026-04-30 19:01 44.25342 5.93367 2902 ft 84 kts 168°
2026-04-30 19:01 44.24781 5.93555 3123 ft 84 kts 163°
2026-04-30 19:02 44.23797 5.94419 3560 ft 86 kts 131°
2026-04-30 19:02 44.22764 5.95279 3862 ft 97 kts 180°
2026-04-30 19:03 44.21434 5.95482 4160 ft 77 kts 173°
2026-04-30 19:03 44.20460 5.95843 4585 ft 74 kts 168°
2026-04-30 19:04 44.19363 5.96267 4736 ft 94 kts 169°
2026-04-30 19:04 44.17962 5.96813 4821 ft 117 kts 174°
2026-04-30 19:05 44.16326 5.97292 4765 ft 118 kts 169°
2026-04-30 19:05 44.14764 5.97786 4707 ft 115 kts 170°
2026-04-30 19:06 44.13187 5.98249 4657 ft 116 kts 169°
2026-04-30 19:06 44.12392 5.98479 4631 ft 116 kts 170°
2026-04-30 19:06 44.10823 5.98959 4582 ft 115 kts 170°
2026-04-30 19:07 44.09262 5.99432 4525 ft 115 kts 170°
2026-04-30 19:07 44.08474 5.99661 4502 ft 116 kts 170°
2026-04-30 19:08 44.06889 6.00108 4506 ft 118 kts 172°
2026-04-30 19:08 44.05676 6.00438 4796 ft 22 kts 237°
2026-04-30 19:08 44.05423 5.99564 4543 ft 102 kts 254°
2026-04-30 19:09 44.04459 5.98716 4721 ft 116 kts 134°
2026-04-30 19:09 44.03808 5.99429 4751 ft 120 kts 144°
2026-04-30 19:09 44.03127 6.00109 4744 ft 119 kts 146°
2026-04-30 19:10 44.01766 6.01395 4745 ft 120 kts 147°
2026-04-30 19:10 44.00257 6.02418 4749 ft 122 kts 158°
2026-04-30 19:11 43.99479 6.02876 4748 ft 121 kts 158°
2026-04-30 19:11 43.97926 6.03785 4750 ft 121 kts 158°
2026-04-30 19:11 43.97160 6.04236 4807 ft 117 kts 158°
2026-04-30 19:12 43.96432 6.04668 4881 ft 103 kts 158°
2026-04-30 19:12 43.95836 6.04985 4806 ft 84 kts 161°
2026-04-30 19:12 43.95337 6.05218 4725 ft 66 kts 164°
2026-04-30 19:13 43.94163 6.05533 4479 ft 100 kts 172°
2026-04-30 19:13 43.92802 6.05883 4757 ft 107 kts 171°
2026-04-30 19:13 43.92083 6.06344 4677 ft 123 kts 150°
2026-04-30 19:14 43.91277 6.06567 4580 ft 126 kts 182°
2026-04-30 19:14 43.90515 6.06833 4288 ft 68 kts 156°
2026-04-30 19:14 43.89806 6.07356 3888 ft 110 kts 165°
2026-04-30 19:14 43.89145 6.07690 4168 ft 99 kts 148°
2026-04-30 19:15 43.88830 6.08180 3750 ft 62 kts 79°
2026-04-30 19:15 43.88212 6.09814 3843 ft 97 kts 161°
2026-04-30 19:15 43.87572 6.10189 3953 ft 103 kts 152°
2026-04-30 19:16 43.86918 6.10626 4091 ft 105 kts 154°
2026-04-30 19:16 43.86284 6.11031 4336 ft 101 kts 164°
2026-04-30 19:16 43.85074 6.11507 4241 ft 81 kts 141°
2026-04-30 19:17 43.84652 6.11966 4501 ft 69 kts 130°
2026-04-30 19:17 43.83917 6.12859 4764 ft 70 kts 136°
2026-04-30 19:17 43.83537 6.13282 4926 ft 70 kts 137°
2026-04-30 19:18 43.82956 6.13777 5118 ft 74 kts 142°
2026-04-30 19:18 43.82358 6.14258 5334 ft 74 kts 143°
2026-04-30 19:18 43.81901 6.14625 5468 ft 78 kts 145°
2026-04-30 19:19 43.81405 6.14983 5597 ft 81 kts 145°
2026-04-30 19:19 43.80918 6.15374 5760 ft 83 kts 144°
2026-04-30 19:19 43.79846 6.16284 5815 ft 97 kts 143°
2026-04-30 19:20 43.79308 6.16841 5888 ft 96 kts 141°
2026-04-30 19:20 43.78765 6.17438 5905 ft 103 kts 135°
2026-04-30 19:20 43.77725 6.18875 5969 ft 111 kts 129°
2026-04-30 19:21 43.77180 6.19659 5946 ft 115 kts 131°
2026-04-30 19:21 43.76040 6.21224 5899 ft 117 kts 134°
2026-04-30 19:22 43.74846 6.22754 5854 ft 117 kts 134°
2026-04-30 19:22 43.72991 6.24936 5770 ft 114 kts 136°
2026-04-30 19:23 43.71459 6.26385 5670 ft 62 kts 147°
2026-04-30 19:24 43.70479 6.26421 5297 ft 81 kts 131°
2026-04-30 19:24 43.70085 6.27023 5399 ft 86 kts 118°
2026-04-30 19:24 43.69500 6.28524 5607 ft 96 kts 115°
2026-04-30 19:25 43.68522 6.31270 5742 ft 114 kts 113°
2026-04-30 19:26 43.67831 6.33248 5741 ft 115 kts 112°
2026-04-30 19:26 43.67152 6.35219 5735 ft 112 kts 112°
2026-04-30 19:26 43.66810 6.36193 5736 ft 113 kts 114°
2026-04-30 19:27 43.66114 6.38172 5737 ft 115 kts 113°
2026-04-30 19:27 43.65431 6.40098 5733 ft 112 kts 113°
2026-04-30 19:28 43.65088 6.41072 5736 ft 112 kts 115°
2026-04-30 19:28 43.64435 6.42985 5737 ft 110 kts 113°
2026-04-30 19:29 43.63781 6.44879 5735 ft 108 kts 113°
2026-04-30 19:29 43.63453 6.45815 5738 ft 109 kts 113°
2026-04-30 19:30 43.62227 6.48258 4850 ft 120 kts 146°
2026-04-30 19:30 43.61150 6.49466 4669 ft 91 kts 126°
2026-04-30 19:31 43.60213 6.50849 4676 ft 99 kts 126°
2026-04-30 19:31 43.59732 6.51523 4688 ft 101 kts 128°
2026-04-30 19:31 43.58695 6.52909 4683 ft 105 kts 130°
2026-04-30 19:32 43.58154 6.53598 4684 ft 106 kts 131°
2026-04-30 19:32 43.57593 6.54289 4684 ft 107 kts 131°
2026-04-30 19:32 43.57201 6.55113 4678 ft 102 kts 112°
2026-04-30 19:32 43.56873 6.55968 4677 ft 102 kts 113°
2026-04-30 19:33 43.56545 6.56831 4674 ft 102 kts 112°
2026-04-30 19:33 43.56220 6.57684 4672 ft 100 kts 113°
2026-04-30 19:33 43.55897 6.58534 4672 ft 100 kts 113°
2026-04-30 19:33 43.55573 6.59386 4674 ft 99 kts 113°
2026-04-30 19:34 43.55272 6.60159 4628 ft 79 kts 113°
2026-04-30 19:34 43.55030 6.60759 4602 ft 72 kts 111°
2026-04-30 19:34 43.54579 6.62172 4654 ft 90 kts 92°
2026-04-30 19:35 43.54536 6.63033 4692 ft 91 kts 94°
2026-04-30 19:35 43.54488 6.63946 4693 ft 97 kts 93°
2026-04-30 19:35 43.54437 6.64877 4699 ft 99 kts 93°
2026-04-30 19:35 43.54384 6.65855 4704 ft 103 kts 93°
2026-04-30 19:36 43.54333 6.66837 4697 ft 102 kts 93°
2026-04-30 19:36 43.54283 6.67809 4696 ft 101 kts 93°
2026-04-30 19:36 43.54186 6.69730 4690 ft 102 kts 93°
2026-04-30 19:37 43.54138 6.70700 4693 ft 101 kts 93°
2026-04-30 19:37 43.54089 6.71665 4694 ft 101 kts 93°
2026-04-30 19:37 43.54039 6.72638 4663 ft 104 kts 93°
2026-04-30 19:37 43.53986 6.73656 4589 ft 105 kts 94°
2026-04-30 19:38 43.53934 6.74606 4494 ft 94 kts 93°
2026-04-30 19:38 43.53886 6.75492 4417 ft 94 kts 93°
2026-04-30 19:38 43.53836 6.76388 4329 ft 93 kts 94°
2026-04-30 19:38 43.53786 6.77281 4265 ft 95 kts 94°
2026-04-30 19:39 43.53740 6.78181 4179 ft 92 kts 93°
2026-04-30 19:39 43.53694 6.79054 4085 ft 91 kts 93°
2026-04-30 19:39 43.53720 6.79895 4003 ft 92 kts 81°
2026-04-30 19:39 43.53830 6.80740 3929 ft 88 kts 82°
2026-04-30 19:40 43.53915 6.81580 3820 ft 87 kts 83°
2026-04-30 19:40 43.54005 6.82409 3739 ft 89 kts 83°
2026-04-30 19:40 43.54073 6.83261 3628 ft 89 kts 85°
2026-04-30 19:40 43.54130 6.84106 3484 ft 88 kts 88°
2026-04-30 19:41 43.54136 6.84975 3358 ft 92 kts 89°
2026-04-30 19:41 43.54121 6.85848 3193 ft 91 kts 86°
2026-04-30 19:41 43.54227 6.86669 2979 ft 85 kts 75°
2026-04-30 19:41 43.54374 6.87465 2694 ft 83 kts 76°
2026-04-30 19:42 43.54490 6.88196 2500 ft 76 kts 80°
2026-04-30 19:42 43.54528 6.88908 2245 ft 77 kts 89°
2026-04-30 19:42 43.54608 6.89631 2071 ft 73 kts 76°
2026-04-30 19:42 43.54709 6.90355 1850 ft 82 kts 81°
2026-04-30 19:43 43.54727 6.91119 1555 ft 78 kts 85°
2026-04-30 19:43 43.54776 6.91878 1304 ft 79 kts 86°
2026-04-30 19:43 43.54787 6.92640 1078 ft 84 kts 90°
2026-04-30 19:44 43.54384 6.93897 844 ft 81 kts 153°
2026-04-30 19:44 43.53818 6.93950 683 ft 84 kts 172°
2026-04-30 19:44 43.53305 6.94197 695 ft 76 kts 112°
2026-04-30 19:44 43.53384 6.94847 509 ft 73 kts 70°
2026-04-30 19:45 43.53764 6.95196 249 ft 79 kts
2026-04-30 19:45 43.54249 6.95178 40 ft 60 kts 356°
2026-04-30 19:45 43.54563 6.95127 13 ft 35 kts 352°
2026-04-30 19:45 43.54916 6.95062 36 ft 68 kts 352°
2026-04-30 19:46 43.55410 6.94957 245 ft 73 kts 349°
2026-04-30 19:46 43.55901 6.94782 498 ft 73 kts 329°
2026-04-30 19:46 43.56093 6.94168 738 ft 79 kts 266°
2026-04-30 19:46 43.55805 6.93512 948 ft 85 kts 200°
2026-04-30 19:47 43.55201 6.93510 1051 ft 91 kts 160°
2026-04-30 19:47 43.54785 6.93612 991 ft 89 kts 153°
2026-04-30 19:47 43.54036 6.93898 901 ft 85 kts 156°
2026-04-30 19:47 43.53536 6.94261 837 ft 74 kts 110°
2026-04-30 19:48 43.53597 6.94962 484 ft 75 kts 96°
2026-04-30 19:48 43.54019 6.95227 165 ft 67 kts 18°
2026-04-30 19:48 43.54427 6.95151 17 ft 50 kts 353°
2026-04-30 19:48 43.54726 6.95098 12 ft 53 kts 352°
2026-04-30 19:49 43.55187 6.95012 131 ft 73 kts 351°
2026-04-30 19:49 43.56031 6.95335 660 ft 67 kts 71°
2026-04-30 19:49 43.55911 6.95981 850 ft 81 kts 131°
2026-04-30 19:50 43.55374 6.96267 1062 ft 92 kts 155°
2026-04-30 19:50 43.54771 6.96496 1111 ft 88 kts 155°
2026-04-30 19:50 43.54170 6.96709 1100 ft 91 kts 147°
2026-04-30 19:50 43.53542 6.96701 1036 ft 103 kts 217°
2026-04-30 19:51 43.53188 6.95913 912 ft 88 kts 258°
2026-04-30 19:51 43.53451 6.95312 644 ft 70 kts 348°
2026-04-30 19:51 43.53925 6.95230 277 ft 69 kts 13°
2026-04-30 19:51 43.54380 6.95161 26 ft 60 kts 353°
2026-04-30 19:52 43.54693 6.95109 12 ft 44 kts 352°
2026-04-30 19:52 43.55142 6.95027 63 ft 78 kts 354°
2026-04-30 19:52 43.55672 6.94924 346 ft 73 kts 350°
2026-04-30 19:52 43.56181 6.94792 616 ft 74 kts 12°
2026-04-30 19:53 43.56567 6.95195 861 ft 71 kts 72°
2026-04-30 19:53 43.56455 6.95825 1051 ft 84 kts 141°
2026-04-30 19:53 43.55737 6.95842 972 ft 109 kts 176°
2026-04-30 19:53 43.55038 6.95943 1036 ft 97 kts 162°
2026-04-30 19:54 43.54418 6.96013 919 ft 85 kts 172°
2026-04-30 19:54 43.53837 6.96075 692 ft 85 kts 168°
2026-04-30 19:54 43.53572 6.95481 442 ft 91 kts 305°
2026-04-30 19:54 43.54139 6.95223 85 ft 89 kts 10°
2026-04-30 19:55 43.54620 6.95123 13 ft 51 kts 353°
2026-04-30 19:55 43.54924 6.95066 10 ft 55 kts 353°
2026-04-30 19:55 43.55392 6.95001 153 ft 72 kts 355°
2026-04-30 19:55 43.55883 6.94940 418 ft 72 kts 358°
2026-04-30 19:56 43.56338 6.95119 693 ft 68 kts 53°
2026-04-30 19:56 43.56412 6.95759 877 ft 76 kts 111°
2026-04-30 19:56 43.55939 6.96208 1044 ft 92 kts 158°
2026-04-30 19:56 43.55258 6.96218 1064 ft 99 kts 178°
2026-04-30 19:57 43.54578 6.96082 1085 ft 99 kts 177°
2026-04-30 19:57 43.53915 6.96164 1075 ft 95 kts 160°
2026-04-30 19:57 43.53280 6.96348 1084 ft 92 kts 157°
2026-04-30 19:57 43.52791 6.95897 900 ft 96 kts 270°
2026-04-30 19:58 43.53143 6.95362 565 ft 84 kts 356°
2026-04-30 19:58 43.53673 6.95278 290 ft 71 kts 356°
2026-04-30 19:58 43.54145 6.95199 87 ft 67 kts 353°
2026-04-30 19:58 43.54543 6.95130 14 ft 47 kts 350°
2026-04-30 19:59 43.54784 6.95092 19 ft 52 kts 351°
2026-04-30 19:59 43.55181 6.95018 11 ft 61 kts 351°
2026-04-30 19:59 43.55989 6.94823 378 ft 69 kts 349°
2026-04-30 20:00 43.56430 6.95021 629 ft 70 kts 53°
2026-04-30 20:00 43.56497 6.95646 826 ft 75 kts 113°
2026-04-30 20:00 43.56096 6.96253 667 ft 103 kts 136°
2026-04-30 20:00 43.55424 6.96265 967 ft 97 kts 183°
2026-04-30 20:01 43.54065 6.95940 943 ft 86 kts 183°
2026-04-30 20:01 43.53689 6.95562 598 ft 90 kts 290°
2026-04-30 20:01 43.54213 6.95192 28 ft 81 kts 352°
2026-04-30 20:02 43.55066 6.95045 69 ft 76 kts 353°
2026-04-30 20:02 43.55573 6.94918 364 ft 70 kts 352°
2026-04-30 20:03 43.56255 6.95676 810 ft 77 kts 90°
2026-04-30 20:03 43.55894 6.96173 855 ft 99 kts 174°
2026-04-30 20:03 43.55217 6.96070 1100 ft 97 kts 178°
2026-04-30 20:03 43.54547 6.95942 1081 ft 92 kts 180°
2026-04-30 20:04 43.54036 6.95564 636 ft 108 kts 275°
2026-04-30 20:04 43.54679 6.95140 34 ft 91 kts 11°
2026-04-30 20:04 43.55171 6.95025 11 ft 52 kts 358°
2026-04-30 20:05 43.55433 6.95109 13 ft 13 kts 112°
2026-04-30 20:05 43.55360 6.95152 13 ft 15 kts 173°
2026-04-30 20:05 43.55033 6.95210 12 ft 30 kts 173°
2026-04-30 20:06 43.54980 6.95160 12 ft 10 kts 264°
2026-04-30 20:06 43.54970 6.95055 11 ft 0 kts 333°
2026-04-30 20:06 43.55124 6.95023 10 ft 45 kts 354°
2026-04-30 20:06 43.55496 6.94961 60 ft 59 kts 349°
2026-04-30 20:07 43.55936 6.94967 228 ft 66 kts 28°
2026-04-30 20:07 43.56140 6.95521 404 ft 76 kts 91°
2026-04-30 20:07 43.55078 6.96058 606 ft 103 kts 178°
2026-04-30 20:08 43.54354 6.96010 558 ft 101 kts 181°
2026-04-30 20:08 43.53744 6.95951 524 ft 79 kts 181°
2026-04-30 20:08 43.53340 6.95619 416 ft 74 kts 268°
2026-04-30 20:08 43.53677 6.95285 234 ft 63 kts 351°
2026-04-30 20:09 43.54110 6.95207 73 ft 60 kts 353°
2026-04-30 20:09 43.54522 6.95136 18 ft 56 kts 352°
2026-04-30 20:09 43.54968 6.95061 10 ft 12 kts
2026-04-30 20:10 43.54994 6.95214 12 ft 12 kts 141°
2026-04-30 20:10 43.54857 6.95246 12 ft 23 kts 169°
2026-04-30 20:10 43.54829 6.95323 13 ft 7 kts 160°